Pardubice, Czech Republic

10:45 PM CEST on June 24, 2017 (GMT +0200)
Pardubice

Weather History for LKPD - September, 2012

Change the Weather History Date:

Monday, September 24, 2012

  Actual Average Record
Temperature  
Mean Temperature 56 °F -  
Max Temperature 69 °F - - ()
Min Temperature 44 °F - - ()
Degree Days  
Heating Degree Days 8    
Growing Degree Days 6 (Base 50)    
Moisture  
Dew Point 50 °F    
Average Humidity 80    
Maximum Humidity 94    
Minimum Humidity 60    
Precipitation  
Precipitation 0.00 in - - ()
Sea Level Pressure  
Sea Level Pressure 29.70 in    
Wind  
Wind Speed 3 mph ()    
Max Wind Speed 8 mph    
Max Gust Speed 22 mph    
T = Trace of Precipitation, MM = Missing Value Source: Averaged Metar Reports

Daily Weather History Graph

Daily Weather History Graph

Search for Another Location

Airport or City:

Trip Planner

Search our weather history database for the weather conditions in past years. The results will help you decide how hot, cold, wet, or windy it might be!

Date:

Astronomy

Sep. 24, 2012 Rise Set
Actual Time 6:46 AM CEST 6:50 PM CEST
Civil Twilight 6:14 AM CEST 7:22 PM CEST
Nautical Twilight 5:36 AM CEST 8:00 PM CEST
Astronomical Twilight 4:57 AM CEST 8:39 PM CEST
Moon 3:51 PM CEST 12:13 AM CEST
Length of Visible Light 13h 07m
Length of Day
12h 03m
Waxing Gibbous, 68% of the Moon is Illuminated
Sep 24
Waxing Gibbous
Sep 30
Full
Oct 8
Last Quarter
Oct 15
New
Oct 22
First Quarter

Hourly Weather History & Observations

Time (CEST) Temp. Windchill Dew Point Humidity Pressure Visibility Wind Dir Wind Speed Gust Speed Precip Events Conditions
12:00 AM 44.6 °F - 42.8 °F 93% 29.92 in - Variable 2.3 mph - N/A   Clear
1:00 AM 44.6 °F 43.1 °F 42.8 °F 93% 29.89 in - East 3.5 mph - N/A   Clear
2:00 AM 46.4 °F 43.5 °F 42.8 °F 87% 29.86 in - ENE 5.8 mph - N/A   Clear
3:00 AM 44.6 °F - 41.0 °F 87% 29.83 in - East 1.2 mph - N/A   Clear
4:00 AM 46.4 °F - 42.8 °F 87% 29.80 in - West 1.2 mph - N/A   Clear
5:00 AM 46.4 °F - 44.6 °F 93% 29.80 in - Variable 1.2 mph - N/A   Clear
6:00 AM 44.6 °F - 42.8 °F 93% 29.77 in - Calm Calm - N/A   Clear
7:00 AM 44.6 °F - 42.8 °F 93% 29.74 in - West 2.3 mph - N/A   Clear
8:00 AM 46.4 °F - 44.6 °F 93% 29.74 in - West 1.2 mph - N/A   Clear
10:00 AM 59.0 °F - 48.2 °F 67% 29.68 in - East 5.8 mph - N/A   Clear
11:00 AM 62.6 °F - 51.8 °F 68% 29.68 in - East 3.5 mph - N/A   Clear
12:00 PM 64.4 °F - 53.6 °F 68% 29.68 in - Variable 1.2 mph - N/A   Clear
1:00 PM 68.0 °F - 55.4 °F 64% 29.65 in - Variable 2.3 mph - N/A   Clear
2:00 PM 69.8 °F - 55.4 °F 60% 29.62 in - SE 3.5 mph - N/A   Clear
3:00 PM 69.8 °F - 55.4 °F 60% 29.59 in - SSW 5.8 mph - N/A   Clear
4:00 PM 69.8 °F - 57.2 °F 64% 29.59 in - SSE 8.1 mph 21.9 mph N/A   Clear
5:00 PM 68.0 °F - 57.2 °F 68% 29.59 in - South 3.5 mph - N/A   Clear
6:00 PM 66.2 °F - 57.2 °F 73% 29.59 in - WNW 5.8 mph - N/A   Clear
7:00 PM 64.4 °F - 57.2 °F 77% 29.59 in - Variable 1.2 mph - N/A   Clear
8:00 PM 60.8 °F - 57.2 °F 88% 29.59 in - SSE 2.3 mph - N/A   Clear
9:00 PM 59.0 °F - 55.4 °F 88% 29.59 in - West 3.5 mph - N/A   Clear
10:00 PM 59.0 °F - 55.4 °F 88% 29.62 in - WNW 1.2 mph - N/A   Clear
11:00 PM 59.0 °F - 57.2 °F 94% 29.62 in - West 4.6 mph - N/A   Clear